Regional Weather Roundup
Issued by NWS

Home | Current Version | Previous Version | Graphics & Text | Print | Product List | Glossary On
Versions: 1 2 3 4 5 6 7 8 9 10 11 12 13 14 15 16 17 18 19 20 21 22 23 24 25 26 27 28 29 30 31 32 33 34 35 36 37 38 39 40 41 42 43 44 45 46 47 48 49 50
000
ASUS43 KLSX 081307
RWRMO

WEATHER SUMMARY FOR MISSOURI
NATIONAL WEATHER SERVICE SPRINGFIELD MO
700 AM CST THU DEC 08 2016

NOTE: "FAIR" INDICATES FEW OR NO CLOUDS BELOW 12,000 FEET WITH NO
       SIGNIFICANT WEATHER AND/OR OBSTRUCTIONS TO VISIBILITY.
       CURRENT SKY AND/OR WEATHER CONDITIONS ARE NOT AVAILABLE FOR
       CHILLICOTHE AND FARMINGTON.

MOZ001>031-035>038-043-044-053-054-081400-
...NORTHERN AND WESTERN MISSOURI...

CITY           SKY/WX    TMP DP  RH WIND       PRES   REMARKS
KANSAS CTY INT CLEAR     14   5  67 NW12      30.54R WCI   0
KANSAS C DTWN  CLEAR     17   6  62 NW12G20   30.58R WCI   4
LEE`S SUMMIT   CLEAR     15   6  67 W16G23    30.54R WCI  -1
ST JOSEPH      CLEAR     14   5  67 NW12      30.57R WCI   0
CHILLICOTHE      N/A     15   6  67 NW10      30.52R WCI   2
KIRKSVILLE     CLEAR     14   7  73 W14       30.45R WCI  -1

$$
MOZ066>068-077>081-088>096-101>105-081400-
...SOUTHWEST MISSOURI...

CITY           SKY/WX    TMP DP  RH WIND       PRES   REMARKS
SPRINGFIELD    CLEAR     18  10  71 W8        30.53R WCI   8
JOPLIN         CLOUDY    17  10  74 NW5       30.60R WCI  10
BRANSON        MOCLDY    19  10  68 W6        30.54R WCI  11

$$
MOZ032>034-039>042-045>050-055>058-069>072-081400-
...CENTRAL MISSOURI...

CITY           SKY/WX    TMP DP  RH WIND       PRES   REMARKS
COLUMBIA       CLEAR     17   9  70 W10       30.48R WCI   5
JEFFERSON CITY CLEAR     19   9  65 W10       30.52R WCI   7
ROLLA          CLEAR     17   9  70 W12       30.45R WCI   4
SEDALIA        CLEAR     17   9  70 W10       30.53R WCI   5
WHITEMAN AFB   PTCLDY    16   9  73 W9        30.53R WCI   4
WARRENSBURG    CLEAR     16   9  73 W8        30.55R WCI   5
OSAGE BEACH    CLEAR     18  10  71 NW9       30.52R WCI   7

$$
MOZ051-052-059>065-081400-
...EAST CENTRAL MISSOURI...

CITY           SKY/WX    TMP DP  RH WIND       PRES   REMARKS
ST LOUIS INTL  PTCLDY    22  10  60 W16       30.44R WCI   8
SPIRIT OF STL  CLEAR     20  11  68 W12       30.46R WCI   8
ST CHARLES     CLEAR     21  12  68 W15       30.45R WCI   8

$$
MOZ072>076-082>087-097>100-106>115-081400-
...SOUTH CENTRAL AND SOUTHEAST MISSOURI...

CITY           SKY/WX    TMP DP  RH WIND       PRES   REMARKS
CAPE GIRARDEAU PTCLDY    24  12  60 NW9       30.46R WCI  14
FARMINGTON     CLEAR     20  11  68 NW8       30.44R WCI  10
POPLAR BLUFF   CLEAR     26  13  57 NW9       30.49R WCI  17
WEST PLAINS    CLOUDY    20  11  68 W7        30.48R WCI  11

$$


USA.gov is the U.S. government's official web portal to all federal, state and local government web resources and services.